Location: Maccacari
(45.1333°N, 11.1333°E)
Time: 08:25:54
(UTC+00:00)

ATLAS 3B R/B - Pass Details

Date: 18 September 2020
Orbit: 1016 x 1179 km, 63.8° (Epoch: 28 October)

Event Time Altitude Azimuth Distance (km) Brightness Sun altitude
Rises 19:32:03 0° 322° (NW) 3,813 6.7 -23.2°
Reaches altitude 10° 19:34:59 10° 333° (NNW) 2,878 5.7 -23.6°
Maximum altitude 19:41:01 32° 35° (NE) 1,753 3.7 -24.5°
Enters shadow 19:42:49 29° 63° (ENE) 1,894 3.7 -24.8°
